SCP
0 0 0 0 0 0 0 0 0 0 0 0 0 0 0 0 0 0 0 0 0 0 0 0 0 0 0 0 0 0 0 0 0 0 0 0 0 0 0 0 0 0 0 0
0 0 0 0 0 0 0 0 0 0 0 0 0 0 0 0 0 0 0 0 0 0 0 0 0 0 0 0 0 0 0 0 0 0 0 0 0 0 0 0 0 0 0 0
0 0 0 0 0 0 0 0 0 0 0 0 0 0 0 0 0 0 0 0 0 0 0 0 0 0 0 0 0 0 0 0 0 0 0 0 0 0 0 0 0 0 0 0
0 0 0 0 0 0 0 0 0 0 0 0 0 0 0 0 0 0 0 0 0 0 0 0 0 0 0 0 0 0 0 0 0 0 0 0 0 0 0 0 0 0 0 0
0 0 0 0 0 0 0 0 0 0 0 0 0 0 0 0 0 0 0 0 0 0 0 0 0 0 0 0 0 0 0 0 0 0 0 0 0 0 0 0 0 0 0 0
0 0 0 0 0 0 0 0 0 0 0 0 0 0 0 0 0 0 0 0 0 0 0 0 0 0 0 0 0 0 0 0 0 0 0 0 0 0 0 0 0 0 0 0
0 0 0 0 0 0 0 0 0 0 0 0 0 0 0 0 0 0 0 0 0 0 0 0 0 0 0 0 0 0 0 0 0 0 0 0 0 0 0 0 0 0 0 0
0 0 0 0 0 0 0 0 0 0 0 0 0 0 0 0 0 0 0 0 0 0 0 0 0 0 0 0 0 0 0 0 0 0 0 0 0 0 0 0 0 0 0 0
0 0 0 0 0 0 0 0 0 0 0 0 0 0 0 0 0 0 0 0 0 0 0 0 0 0 0 0 0 0 0 0 0 0 0 0 0 0 0 0 0 0 0 0
0 0 0 -0 0 0 0 0 0 0 0 0 0 0 0 0 0 0 0 0 0 0 0 0 0 0 0 0 0 0 0 0 0 0 0 0 0 0 0 0 0 0 0 0
0 0 0 0 0 0 0 0 0 0 0 0 0 0 0 0 0 0 0 0 0 0 0 0 0 0 0 0 0 0 0 0 0 0 0 0 0 0 0 0 0 0 0 0
0 0 0 0 0 0 0 0 0 0 0 0 0 0 0 0 0 0 0 0 0 0 0 0 0 0 0 0 0 0 0 0 0 0 0 0 0 0 0 0 0 0 0 0
0 0 0 0 0 0 0 0 0 0 0 0 0 0 0 0 0 0 0 0 0 0 0 0 0 0 0 0 0 0 0 0 0 0 0 0 0 0 0 0 0 0 0 0
0 0 0 0 0 0 0 0 0 0 0 0 0 0 0 0 0 0 0 0 0 0 0 0 0 0 0 0 0 0 0 0 0 0 0 0 0 0 0 0 0 0 0 0
0 0 0 0 0 0 0 0 0 0 0 0 0 0 0 0 0 0 0 0 0 0 0 0 0 0 0 0 0 0 0 0 0 0 0 0 0 0 0 0 0 0 0 0
0 0 0 0 0 0 0 0 0 0 0 0 0 0 0 0 0 0 0 0 0 0 0 0 0 0 0 0 0 0 0 0 0 0 0 0 0 0 0 0 0 0 0 0
0 0 0 0 0 0 0 0 0 0 0 0 0 0 0 0 0 0 0 0 0 0 0 0 0 0 0 0 0 0 0 0 0 0 0 0 0 0 0 0 0 0 0 0
0 0 0 0 0 0 0 0 0 0 0 0 0 0 0 0 0 0 0 0 0 0 0 0 0 0 0 0 0 0 0 0 0 0 0 0 0 0 0 0 0 0 0 0
0 0 0 0 0 0 0 0 0 0 0 0 0 0 0 0 0 0 0 0 0 0 0 0 0 0 0 0 0 0 0 0 0 0 0 0 0 0 0 0 0 0 0 0
0 0 0 0 0 0 0 0 0 0 0 0 0 0 0 0 0 0 0 0 0 0 0 0 0 0 0 0 0 0 0 0 0 0 0 0 0 0 0 0 0 0 0 0
0 0 0 0 0 0 0 0 0 0 0 0 0 0 0 0 0 0 0 0 0 0 0 0 0 0 0 0 0 0 0 0 0 0 0 0 0 0 0 0 0 0 0 0
0 0 0 0 0 0 0 0 0 0 0 -0 -0 0 0 0 0 0 0 0 0 0 0 0 0 0 0 0 0 0 0 0 0 0 0 0 0 0 0 0 0 0 0 0
0 0 0 0 0 0 0 0 0 0 0 -0 -0 0 0 0 0 0 0 0 0 0 0 0 0 0 0 0 0 0 0 0 0 0 0 0 0 0 0 0 0 0 0 0
0 0 0 0 0 0 0 0 0 0 0 -0 -0 0 0 0 0 0 0 0 0 0 0 0 0 0 0 0 0 0 0 0 0 0 0 0 0 0 0 0 0 0 0 0
0 0 0 0 0 0 0 0 0 0 0 -0 -0 0 0 0 0 0 0 0 0 0 0 0 0 0 0 0 0 0 0 0 0 0 0 0 0 0 0 0 0 0 0 0
0 0 0 0 0 0 0 0 0 0 0 0 0 0 0 0 0 0 0 0 0 0 0 0 0 0 0 0 0 0 0 0 0 0 0 0 0 0 0 0 0 0 0 0
0 0 0 0 0 0 0 0 0 0 0 0 0 0 0 0 0 0 0 0 0 0 0 0 0 0 0 0 0 0 0 0 0 0 0 0 0 0 0 0 0 0 0 0
Wind_Speed
6 5 2 3 4 4 7 7 7 7 7 8 5 4 3 3 2 2 2 2 2 2 2 2 2 2 2 2 2 2 1 1 2 1 1 1 1 2 2 2 2 2 3 3
6 4 4 6 6 7 8 8 8 8 11 8 6 3 3 3 2 2 3 3 3 3 2 2 2 2 2 2 2 2 1 2 2 2 1 1 2 2 2 2 2 2 2 3
5 2 3 7 7 8 6 5 5 8 9 6 5 5 4 3 2 3 3 3 3 3 3 3 2 2 2 2 2 2 1 2 2 2 2 2 2 2 2 2 2 3 3 3
3 2 6 5 0 3 5 4 4 5 5 4 4 4 3 3 2 3 4 4 3 3 3 2 1 1 1 2 2 2 2 2 2 2 2 2 2 2 2 2 2 3 4 4
2 4 7 3 1 1 3 4 3 5 6 5 5 4 3 2 3 3 3 3 2 2 2 1 1 1 1 2 2 2 2 2 3 2 2 2 3 3 3 3 3 3 3 4
3 4 5 3 2 2 1 4 3 2 4 4 4 3 4 4 4 4 3 3 2 2 1 1 1 1 1 1 2 2 2 3 3 3 3 3 3 3 3 3 3 3 4 4
5 5 5 2 1 2 2 5 4 2 3 3 3 4 5 5 4 3 3 3 2 1 1 1 1 1 1 1 2 2 3 3 3 3 3 3 3 3 3 3 3 3 4 4
3 4 6 1 2 2 4 3 4 4 3 4 5 5 5 5 5 4 4 3 2 1 1 1 1 0 1 2 3 3 3 3 3 3 3 3 2 3 2 3 3 4 4 4
5 6 2 3 3 2 1 3 4 4 4 4 5 5 5 5 4 4 4 3 2 1 1 2 1 0 1 3 2 2 3 3 3 3 3 3 3 3 3 2 2 3 3 3
3 5 3 2 2 2 3 3 4 4 4 4 5 6 5 5 4 4 3 3 2 1 1 2 2 2 2 2 3 2 3 3 3 3 3 3 3 3 2 2 3 3 3 4
5 5 5 3 2 3 4 4 4 4 4 4 5 5 5 4 4 3 3 3 2 1 2 3 2 2 2 2 2 2 3 3 3 3 3 3 3 3 3 3 4 4 3 3
5 3 4 5 2 3 4 5 5 4 5 4 4 5 5 4 4 3 3 2 2 2 2 2 2 2 2 2 2 2 3 3 2 3 3 3 3 4 5 6 8 9 8 7
5 4 4 5 5 4 4 5 5 4 5 5 4 4 4 4 4 3 3 3 2 2 2 2 2 3 3 2 2 2 3 3 3 3 3 3 3 4 4 6 7 8 9 10
3 3 5 4 5 5 4 5 5 5 4 4 4 3 3 3 4 3 3 3 3 2 2 2 2 3 3 2 2 3 3 4 3 3 3 3 4 4 4 4 5 5 7 9
4 4 4 5 5 5 4 4 5 5 5 4 3 3 3 3 4 4 3 3 3 2 2 2 3 3 3 2 3 3 3 3 3 3 3 3 4 4 4 4 4 5 4 6
6 5 4 4 5 5 4 4 4 5 5 5 4 4 4 3 3 3 3 2 2 3 3 3 3 3 3 3 3 3 3 5 4 3 3 3 3 3 3 4 4 4 4 5
4 5 5 6 6 6 5 4 4 5 4 4 5 4 4 3 3 3 3 3 3 3 3 3 3 4 3 3 3 3 3 3 5 4 3 3 3 3 3 3 4 4 4 6
3 4 4 5 6 6 6 5 4 4 4 4 4 3 3 3 3 4 4 4 3 3 3 3 3 4 3 3 3 2 2 2 3 3 3 3 3 3 3 3 4 5 5 6
4 4 5 5 5 4 5 5 4 4 3 3 3 3 3 3 3 3 3 3 3 4 4 4 6 4 3 4 4 2 2 3 3 3 3 5 4 3 3 4 4 4 5 4
4 4 4 5 5 4 4 4 4 3 3 3 2 3 3 4 3 3 3 3 3 3 4 5 4 3 3 4 4 2 2 3 3 3 3 3 3 3 3 4 4 4 4 4
5 5 5 5 5 4 3 3 3 3 3 3 2 3 3 4 4 3 3 3 4 4 5 6 4 3 3 4 4 2 3 3 3 3 3 3 3 4 4 4 4 4 4 5
4 4 5 4 4 4 4 3 3 3 3 3 3 3 3 4 4 4 3 2 4 7 5 3 3 5 6 5 2 2 3 3 3 3 3 3 3 4 4 4 4 4 4 4
4 4 4 4 4 4 4 3 3 3 3 3 3 3 4 4 3 3 4 3 4 7 5 3 6 8 8 4 2 2 3 3 3 3 3 3 3 3 4 4 4 4 4 4
3 3 4 4 3 3 4 4 3 3 3 3 3 3 3 3 3 2 2 6 8 8 4 6 9 9 7 3 3 3 3 3 3 3 3 3 3 3 4 4 4 4 4 5
3 3 3 3 3 3 3 4 3 3 3 3 3 3 3 2 2 3 3 4 7 7 4 6 9 9 5 3 3 3 3 3 4 3 3 3 4 4 4 4 4 4 4 4
3 3 2 2 2 2 3 3 3 3 3 3 3 3 3 3 3 3 3 4 5 6 5 4 5 6 4 3 3 4 4 4 5 4 4 4 4 4 4 4 5 5 5 5
3 2 2 2 2 2 2 2 3 3 3 3 4 3 3 3 3 4 4 4 4 4 4 4 4 4 4 4 4 4 4 4 4 4 4 4 4 4 4 5 5 5 5 5
Wind_Direction
260 269 249 248 247 214 212 226 236 257 262 277 289 294 301 311 314 322 321 319 319 320 316 327 339 342 342 339 341 342 342 314 293 303 313 301 296 289 288 283 281 280 280 282
267 246 251 273 263 242 238 241 248 270 278 283 295 315 315 306 308 311 309 309 316 318 316 313 312 317 325 327 334 351 343 311 314 327 328 319 306 303 302 304 303 300 287 280
269 265 302 274 244 222 224 219 216 244 262 296 319 323 313 305 306 304 308 313 312 303 298 294 287 285 293 317 340 349 339 329 327 326 325 318 311 315 308 310 313 306 292 280
276 320 251 242 265 197 212 235 236 261 286 310 308 309 314 317 318 319 314 305 296 294 299 300 304 323 355 356 348 344 340 330 326 322 313 311 305 301 300 305 304 299 293 285
246 252 263 270 293 219 216 263 256 261 283 308 323 322 313 331 334 306 303 302 292 286 291 317 343 3 13 353 350 341 333 330 327 319 306 305 302 304 307 309 306 299 293 286
245 252 253 266 306 324 120 276 302 286 293 317 344 312 295 346 342 332 334 328 322 322 341 344 342 24 19 338 332 319 320 321 320 316 305 299 299 303 304 301 294 294 292 290
239 249 261 278 306 55 130 270 326 332 306 306 272 264 295 326 333 336 333 327 325 331 337 317 333 35 330 314 299 307 317 317 315 310 303 296 295 297 302 301 302 296 290 290
221 237 259 155 103 177 244 312 332 328 318 302 289 300 313 320 325 333 333 331 332 340 327 329 332 317 301 298 306 318 315 311 310 309 305 307 303 300 299 299 300 295 293 294
205 223 248 167 189 224 319 305 311 314 317 313 304 301 309 316 321 326 324 325 340 351 332 331 330 314 284 297 311 312 312 310 310 312 310 308 303 300 300 294 289 290 290 291
262 268 280 263 265 303 308 292 303 310 312 310 297 300 304 309 314 318 320 327 338 347 327 316 327 337 301 301 311 310 307 311 314 314 313 312 303 293 293 291 288 288 287 288
259 282 309 290 293 312 318 312 307 307 302 293 290 293 294 300 304 306 315 321 325 313 299 300 317 323 312 304 305 308 305 307 310 308 306 304 300 290 286 272 274 283 279 278
253 266 261 273 292 316 309 305 303 302 304 301 290 290 298 300 304 307 311 315 313 305 301 301 310 308 307 302 293 292 302 305 304 305 303 302 303 307 301 294 295 292 290 288
261 289 279 278 293 305 301 307 312 303 294 299 299 295 301 304 312 315 314 311 301 293 289 292 297 297 296 295 295 291 291 295 296 300 301 300 300 302 307 311 305 303 300 299
295 306 291 295 301 313 312 310 311 309 308 302 302 309 310 309 315 319 314 312 314 310 301 291 291 293 295 301 301 294 288 286 293 289 292 294 295 295 296 301 308 309 310 309
325 309 277 288 303 313 316 314 313 313 321 324 325 324 322 317 312 313 318 329 335 328 317 309 300 297 308 310 303 295 290 286 287 287 287 289 293 294 295 297 299 305 312 316
319 318 307 304 306 310 315 313 307 307 315 319 321 321 317 308 306 315 325 333 325 313 307 305 298 298 310 305 302 297 289 292 300 297 294 294 294 296 298 300 303 306 308 311
322 321 322 319 316 314 309 300 296 301 308 311 310 314 320 323 324 326 326 326 316 301 299 299 306 314 308 300 299 297 293 292 300 304 298 296 297 297 298 300 301 302 302 307
297 296 299 298 301 307 311 310 306 307 306 304 312 319 319 316 311 309 313 319 323 320 318 324 319 320 314 308 303 300 299 298 301 300 300 300 302 300 301 300 300 300 304 310
331 323 318 316 311 305 307 311 314 315 315 316 317 312 306 304 305 307 313 321 321 323 327 324 321 330 321 311 316 307 306 308 310 305 299 299 305 302 299 297 297 299 304 308
332 330 328 324 324 318 312 316 320 323 321 319 320 321 322 321 321 320 323 318 309 304 310 318 324 321 314 305 316 309 300 298 297 299 301 298 297 298 297 297 301 303 303 303
329 329 329 328 326 326 324 324 327 327 329 335 334 326 321 321 325 323 323 322 321 321 323 329 335 321 315 319 318 317 306 302 300 298 300 300 299 299 301 305 306 305 305 305
325 327 327 328 330 331 334 337 339 336 339 342 338 331 329 329 331 328 323 308 317 329 337 332 325 322 327 331 326 323 319 315 311 308 305 303 302 303 305 305 304 304 304 303
322 326 329 330 328 324 331 341 343 339 337 336 333 332 329 323 324 325 324 329 328 330 337 326 325 330 335 344 333 322 316 311 308 306 302 300 298 298 299 299 300 301 302 302
324 328 326 326 330 335 336 337 339 337 331 327 329 326 322 323 325 324 309 318 329 332 335 329 334 338 345 353 333 323 315 308 303 300 299 300 297 295 295 296 297 298 296 297
317 315 322 333 336 331 329 332 337 339 340 339 338 336 333 323 315 318 320 320 326 337 338 335 339 343 350 342 334 327 322 312 306 307 304 305 303 301 298 295 294 295 295 293
314 313 315 316 314 319 327 330 331 333 338 336 335 338 337 333 325 321 323 329 332 336 338 333 335 339 340 336 331 327 324 321 322 323 317 312 306 303 303 304 300 297 295 293
322 325 328 332 339 343 338 332 329 328 329 325 324 328 331 332 333 334 334 333 333 333 331 331 333 333 332 331 329 328 325 323 321 319 317 313 309 304 302 299 298 297 296 295